Weather in Bangui

Central African Republic     4˚23′34″N   18˚32′55″E
temp.,
°C
wind,
m/s
gust,
m/s
humid.,
%
clouds,
%
prec.,
mm/h
press.,
hPa
HPBL,
m
1 december, tue
tue101:00+24˚ene115255 0.0 101024
04:00+22˚n005974 0.0 101023
07:00+24˚nnw115739 0.0 101272
10:00+33˚nne233226 0.0 10111026
13:00+35˚ne342413 0.0 10082493
16:00+34˚ene242861 0.0 10052390
19:00+26˚ese113980 0.0 100724
22:00+25˚ne114171 0.0 100924
2 december, wed
wed201:00+23˚nw114671 0.0 100923
04:00+21˚n11490 0.0 100923
07:00+24˚nne11470 0.0 101144
10:00+33˚n25230 0.0 10101006
13:00+36˚nne341745 0.0 10062597
16:00+34˚ne242131 0.0 10041758
19:00+26˚ene123016 0.0 100724
22:00+24˚n12320 0.0 100924
3 december, thu
thu301:00+22˚n11330 0.0 100923
04:00+21˚nnw11370 0.0 100923
07:00+24˚n11380 0.0 101163
10:00+33˚n24200 0.0 1011890
13:00+37˚ne34140 0.0 10072339
16:00+35˚ene23190 0.0 10052298
19:00+26˚e11290 0.0 100824
22:00+24˚n11326 0.0 100924
4 december, fri
fri401:00+22˚n013643 0.0 100923
04:00+21˚n123643 0.0 101023
07:00+22˚wsw004321 0.0 101335
10:00+32˚sw22250 0.0 1013936
13:00+37˚nw121833 0.0 10091934
16:00+34˚sse021959 0.0 10072109
19:00+26˚ese122939 0.0 100924
22:00+24˚s003133 0.0 101124
5 december, sat
sat501:00+21˚ssw114333 0.0 101023
04:00+20˚ssw116365 0.0 101123
07:00+22˚sw116954 0.0 1012126
10:00+30˚wsw344642 0.0 1011790
13:00+37˚wnw122652 0.0 10082352
16:00+34˚ene122835 0.0 10062298
19:00+28˚se223749 0.0 100825
22:00+24˚nne114215 0.0 101024